GORIZONT 11 [-]

Last updated on Tue Jun 27 2023 00:03:00 GMT+0000 (Coordinated Universal Time)

1 15484U 85007A 23176.70510891 -.00000244 00000+0 00000+0 0 9991 2 15484 11.1142 323.2318 0005392 160.9395 188.2997 1.00270250141724
UTC large
Height (km)
Speed (km/s)
/
Latitude / Longitude
Inclination (degrees)
Orbital Period (minutes)
Azimuth
Elevation
Range (km)
Doppler Factor

Next 0 passes for location: London (51.5072 / 0.1276)

Sorry there are no passes over London.
GORIZONT 11 [-]